TimeCDT,TemperatureF,Dew PointF,Humidity,Sea Level PressureIn,VisibilityMPH,Wind Direction,Wind SpeedMPH,Gust SpeedMPH,PrecipitationIn,Events,Conditions,WindDirDegrees,DateUTC
12:15 AM,80.6,73.0,78,29.93,10.0,SSE,11.5,19.6,N/A,,Scattered Clouds,160,2013-06-18 05:15:00
12:35 AM,80.2,73.0,79,29.92,10.0,SSE,12.7,17.3,N/A,,Scattered Clouds,160,2013-06-18 05:35:00
12:55 AM,80.1,72.9,79,29.93,10.0,SSE,11.5,18.4,N/A,,Clear,160,2013-06-18 05:55:00
1:15 AM,80.1,72.7,78,29.93,10.0,SSE,10.4,-,N/A,,Clear,160,2013-06-18 06:15:00
1:35 AM,79.9,72.7,79,29.93,10.0,SSE,9.2,-,N/A,,Clear,160,2013-06-18 06:35:00
1:55 AM,79.7,72.9,80,29.93,10.0,SSE,9.2,-,N/A,,Clear,160,2013-06-18 06:55:00
2:15 AM,79.7,72.9,80,29.92,10.0,SE,8.1,-,N/A,,Scattered Clouds,140,2013-06-18 07:15:00
2:35 AM,79.2,72.9,81,29.92,10.0,SE,8.1,-,N/A,,Scattered Clouds,140,2013-06-18 07:35:00
2:55 AM,78.8,73.2,83,29.92,10.0,SE,5.8,-,N/A,,Clear,140,2013-06-18 07:55:00
3:15 AM,78.8,73.0,82,29.92,10.0,SE,3.5,-,N/A,,Clear,130,2013-06-18 08:15:00
3:35 AM,78.4,73.0,83,29.92,10.0,SE,5.8,-,N/A,,Clear,130,2013-06-18 08:35:00
3:55 AM,77.9,72.7,84,29.91,10.0,SE,3.5,-,N/A,,Clear,140,2013-06-18 08:55:00
4:15 AM,77.9,72.9,84,29.91,10.0,ESE,3.5,-,N/A,,Clear,110,2013-06-18 09:15:00
4:35 AM,77.9,72.7,84,29.91,10.0,ESE,3.5,-,N/A,,Clear,110,2013-06-18 09:35:00
4:55 AM,77.2,72.7,86,29.91,10.0,SE,5.8,-,N/A,,Clear,130,2013-06-18 09:55:00
5:15 AM,77.2,72.7,86,29.91,10.0,SE,4.6,-,N/A,,Clear,130,2013-06-18 10:15:00
5:35 AM,77.0,72.7,86,29.91,10.0,SE,4.6,-,N/A,,Clear,130,2013-06-18 10:35:00
5:55 AM,77.0,72.7,86,29.91,10.0,ESE,5.8,-,N/A,,Clear,120,2013-06-18 10:55:00
6:15 AM,77.0,72.7,86,29.91,10.0,SE,6.9,-,N/A,,Clear,140,2013-06-18 11:15:00
6:35 AM,77.0,72.9,87,29.91,10.0,SE,5.8,-,N/A,,Clear,140,2013-06-18 11:35:00
6:55 AM,77.0,72.9,87,29.92,10.0,SE,3.5,-,N/A,,Clear,140,2013-06-18 11:55:00
7:15 AM,77.4,73.4,88,29.93,7.0,SE,3.5,-,N/A,,Clear,130,2013-06-18 12:15:00
7:35 AM,77.9,73.4,86,29.93,7.0,Calm,Calm,-,N/A,,Clear,0,2013-06-18 12:35:00
8:15 AM,80.6,74.1,81,29.93,7.0,SE,6.9,-,N/A,,Clear,140,2013-06-18 13:15:00
8:35 AM,82.6,74.7,77,29.94,7.0,SSE,6.9,-,N/A,,Scattered Clouds,150,2013-06-18 13:35:00
8:55 AM,83.5,74.5,74,29.94,7.0,SSE,10.4,-,N/A,,Mostly Cloudy,160,2013-06-18 13:55:00
9:15 AM,84.9,74.1,70,29.94,7.0,SSE,15.0,20.7,N/A,,Overcast,160,2013-06-18 14:15:00
9:35 AM,86.0,73.2,65,29.95,7.0,SSE,12.7,18.4,N/A,,Mostly Cloudy,160,2013-06-18 14:35:00
9:55 AM,87.6,72.9,61,29.95,7.0,South,11.5,19.6,N/A,,Mostly Cloudy,170,2013-06-18 14:55:00
10:15 AM,87.8,71.6,58,29.94,7.0,South,16.1,19.6,N/A,,Mostly Cloudy,170,2013-06-18 15:15:00
10:35 AM,90.3,71.6,54,29.94,10.0,SSE,13.8,19.6,N/A,,Mostly Cloudy,150,2013-06-18 15:35:00
10:55 AM,89.6,71.1,54,29.95,7.0,South,9.2,21.9,N/A,,Mostly Cloudy,190,2013-06-18 15:55:00
11:15 AM,92.3,70.5,49,29.95,7.0,South,12.7,19.6,N/A,,Mostly Cloudy,170,2013-06-18 16:15:00
11:35 AM,91.6,70.2,49,29.95,7.0,SSE,11.5,19.6,N/A,,Overcast,160,2013-06-18 16:35:00
11:55 AM,93.7,69.4,45,29.95,10.0,SSE,13.8,19.6,N/A,,Scattered Clouds,160,2013-06-18 16:55:00
12:15 PM,94.3,69.6,44,29.94,7.0,South,11.5,23.0,N/A,,Scattered Clouds,180,2013-06-18 17:15:00
12:35 PM,95.7,67.1,39,29.93,7.0,South,10.4,21.9,N/A,,Scattered Clouds,170,2013-06-18 17:35:00
12:55 PM,95.5,67.5,40,29.93,10.0,SSE,15.0,18.4,N/A,,Scattered Clouds,160,2013-06-18 17:55:00
1:15 PM,96.4,65.8,36,29.92,10.0,South,10.4,24.2,N/A,,Scattered Clouds,170,2013-06-18 18:15:00
1:35 PM,97.7,64.4,33,29.92,10.0,South,12.7,19.6,N/A,,Clear,190,2013-06-18 18:35:00
1:55 PM,97.3,62.4,31,29.91,10.0,SE,15.0,20.7,N/A,,Clear,140,2013-06-18 18:55:00
2:15 PM,97.9,61.9,30,29.91,10.0,SSE,15.0,19.6,N/A,,Clear,160,2013-06-18 19:15:00
2:35 PM,99.0,61.7,29,29.90,10.0,South,10.4,23.0,N/A,,Clear,180,2013-06-18 19:35:00
2:55 PM,98.6,61.0,29,29.90,10.0,SSE,13.8,20.7,N/A,,Scattered Clouds,150,2013-06-18 19:55:00
3:15 PM,98.6,60.4,28,29.89,10.0,SSE,11.5,18.4,N/A,,Clear,150,2013-06-18 20:15:00
3:55 PM,98.6,64.0,32,29.88,7.0,SSE,15.0,23.0,N/A,,Scattered Clouds,150,2013-06-18 20:55:00
4:15 PM,98.4,64.0,32,29.87,7.0,SE,10.4,19.6,N/A,,Scattered Clouds,140,2013-06-18 21:15:00
4:55 PM,96.8,63.7,33,29.86,7.0,ESE,10.4,-,N/A,,Clear,120,2013-06-18 21:55:00
5:15 PM,96.8,62.1,32,29.86,10.0,SE,10.4,18.4,N/A,,Clear,130,2013-06-18 22:15:00
5:55 PM,96.6,61.0,31,29.85,10.0,ESE,12.7,18.4,N/A,,Clear,120,2013-06-18 22:55:00
6:15 PM,95.7,61.7,32,29.86,10.0,SSE,11.5,19.6,N/A,,Clear,150,2013-06-18 23:15:00
6:55 PM,93.6,64.6,38,29.85,10.0,SSE,16.1,20.7,N/A,,Clear,150,2013-06-18 23:55:00
7:15 PM,92.1,64.8,40,29.86,10.0,SE,15.0,23.0,N/A,,Clear,140,2013-06-19 00:15:00
7:35 PM,90.7,65.7,43,29.86,10.0,SE,15.0,20.7,N/A,,Clear,140,2013-06-19 00:35:00
7:55 PM,89.2,66.0,46,29.87,10.0,SE,15.0,20.7,N/A,,Clear,130,2013-06-19 00:55:00
8:15 PM,87.8,66.4,49,29.87,10.0,SE,13.8,18.4,N/A,,Clear,130,2013-06-19 01:15:00
8:35 PM,86.4,67.6,53,29.87,10.0,SE,12.7,19.6,N/A,,Clear,140,2013-06-19 01:35:00
8:55 PM,85.1,68.7,58,29.88,10.0,SE,13.8,20.7,N/A,,Clear,140,2013-06-19 01:55:00
9:15 PM,83.8,70.0,63,29.89,10.0,SE,10.4,20.7,N/A,,Clear,140,2013-06-19 02:15:00
9:35 PM,82.9,70.7,66,29.89,10.0,SE,17.3,21.9,N/A,,Clear,140,2013-06-19 02:35:00
9:55 PM,82.0,70.9,69,29.90,10.0,SSE,11.5,19.6,N/A,,Clear,150,2013-06-19 02:55:00
10:35 PM,81.0,71.8,74,29.92,10.0,SSE,10.4,20.7,N/A,,Clear,150,2013-06-19 03:35:00
10:55 PM,80.6,71.8,74,29.92,10.0,SSE,10.4,-,N/A,,Clear,150,2013-06-19 03:55:00
11:15 PM,80.1,72.0,76,29.93,7.0,SSE,12.7,20.7,N/A,,Clear,150,2013-06-19 04:15:00
11:35 PM,79.9,72.3,78,29.93,10.0,SSE,13.8,-,N/A,,Clear,150,2013-06-19 04:35:00
11:55 PM,79.7,72.5,79,29.93,10.0,SSE,9.2,-,N/A,,Clear,150,2013-06-19 04:55:00